Погода в Экимчане

Погода в Экимчане : погода сейчас, прогноз погоды и архив. Всё, что Вы хотите узнать о погоде в Экимчане!

Хотите узнать прогноз погоды в Экимчане? Тогда Вам сюда: Погода в Экимчане

Поиск расширенной информации на нашем сайте:

Другие новости

Новости СМИ2

Главная страница сайта

Новости сайта

03.07.2017

Напоминаем, что на нашем специализированном сайте Метеоцентр.Азия вы можете получить высокодетализированные автоматические прогнозы погоды по пунктам России, СНГ и мира в авиационном формате (включающие направление и скорость ветра, видимость, явления погоды, количество и форму облачности, нижнюю и верхнюю границу облачности).

Рекомендуем: Психолог дистанционное обучение дистанционное обучение психология.

Погода в Экимчане - сегодня

Время (UTC), дата Ветер
(°,м/с) 
Видим.   Явления Облачность Т
(°С)
Тd
(°С)
f(%) Тe
(°С)
Pmin
(гПа)
dP
(гПа)
Po
(мм)
O2
(г/м3)
Тmin Tmax R s Состояние
почвы
15 16.01.18 070 (В) 20000 м    3/0 верхняя 
[Ci fib]
-34.4 -38.1 69 -39  1026.3  0.3  713  331           
18 16.01.18 080 (В) 20000 м    3/0 верхняя 
[Ci fib]
-35.2 -39.1 68 -36  1027.6  714  332           
21 16.01.18 тихо ()   20000 м    3/0 верхняя 
[Ci fib]
-35 -38.9 68 -35  1026.8  -0.7  713  332           
00 17.01.18 тихо ()   20000 м    10/0 верхняя 
[Ci sp]
-35.4 -39.3 67 -35  1027  713  332  -37.3      32  равномерный
сухой снег
100% 
03 17.01.18 тихо ()   20000 м    10/0 средняя 
[As trans]
-29.1 -33.1 68 -29  1023.7  -1.2  712  323           
06 17.01.18 тихо ()   20000 м  слаб. снег  10/0 средняя 
[As trans]
-26.1 -31 63 -26  1020.9  -1.8  711  318           
09 17.01.18 тихо ()   10 км  слаб. снег  10/0 средняя 
[As trans]
-27.3 -30.8 72 -27  1020.6  -0.5  710  320           
12 17.01.18 тихо ()   10 км  слаб. снег  10/0 верхняя 
[Cs]
-27 -30 76 -27  1019.9  -0.6  710  319    -26.1  0.0     
15 17.01.18 тихо ()   10 км  слаб. снег  10/0 верхняя 
[Cs]
-28.8 -32 74 -29  1019.9  -0.5  710  321           
18 17.01.18 тихо ()   10 км  слаб. снег  10/0 верхняя 
[Cs]
-29 -32.3 73 -29  1019.8  0.1  710  322           
21 17.01.18 100 (В) 10 км  слаб. снег  10/0 верхняя 
[Cs]
-29.5 -32.7 74 -30  1019.5  -0.5  709  322           
00 18.01.18 110 (В) 20000 м  в посл. час снег  10/0 верхняя 
[Cs]
-30.7 -34.1 72 -31  1020.7  0.8  710  324  -32.2    0.2  32  равномерный
сухой снег
100% 
03 18.01.18 040 (СВ) 20000 м  в посл. час снег  10/0 верхняя 
[Cs]
-25.3 -30.6 61 -26  1019.1  710  317           
06 18.01.18 тихо ()   10 км  слаб. снег  10/0 верхняя 
[Cs]
-22.3 -27.5 63 -22  1018.1  -0.1  710  313           
09 18.01.18 тихо ()   10 км  слаб. снег  10/0 верхняя 
[Cs]
-26.4 -29.5 75 -26  1021.1  1.6  711  319           
12 18.01.18 тихо ()   10 км  слаб. снег  10/0 верхняя 
[Cs]
-29.1 -32.4 73 -29  1023.5  1.5  712  323    -21.9  0.2     
15 18.01.18 тихо ()   10 км  слаб. снег  10/0 верхняя 
[Cs]
-30.9 -34.2 73 -31  1025.2  713  326           
18 18.01.18 тихо ()   20000 м  {снег}  10/0 верхняя 
[Cs]
-31.5 -35 71 -32  1026.4  0.9  714  327           
21 18.01.18 080 (В) 20000 м  {снег}  10/0 верхняя 
[Cs]
-32.6 -36.2 70 -33  1027.2  0.5  714  329           
00 19.01.18 тихо ()   20000 м  {снег}  ясно 
-34.7 -38.5 68 -35  1027.8  0.1  714  331  -35.4    0.0  33  равномерный
сухой снег
100% 
03 19.01.18 090 (В) 20000 м    3/0 верхняя 
[Ci fib]
-26.9 -32 62 -30  1023.9  -1.3  713  320           
06 19.01.18 тихо ()   20000 м    10/0 верхняя 
[Cs]
-23.9 -29.2 62 -24  1021.9  -1  712  316           
09 19.01.18 070 (В) 20000 м    10/0 верхняя 
[Cs]
-26.8 -30.4 72 -27  1022.6  -0.2  712  320           
12 19.01.18 тихо ()   20000 м    10/0 верхняя 
[Cs]
-28.1 -31.4 73 -28  1022.8  -0.2  712  322    -23.4       
15 19.01.18 080 (В) 20000 м  {туман}  10/0 верхняя 
[Cs]
-29 -32.4 72 -30  1022.7  -0.4  712  323           
Время (UTC), дата Ветер
(°,м/с) 
Видим.   Явления Облачность Т
(°С)
Тd
(°С)
f(%) Тe
(°С)
Pmin
(гПа)
dP
(гПа)
Po
(мм)
O2
(г/м3)
Тmin Tmax R s Состояние
почвы

Для получения пояснительной информации подведите курсор к названию столбца.

ПОГОДА в Экимчане - архив

Всё, что Вы хотите узнать о погоде в Экимчане - удобно и подробно!

Выберите нужную дату (начиная с 1 января 2015* года) и нажмите кнопку "Найти".
Будут отображены архивные сводки погоды по пункту Экимчан, начиная с указанной даты.


Отображать данные в формате CSV (для использования в таблицах Excel)


Внимание! Наш архив погоды предназначен исключительно для личного некоммерческого использования в познавательных целях. Если Вам необходимы официальные справки о состоянии погоды (для производственных, юридических, коммерческих и т.п. целей), обращайтесь в органы Росгидромета.

*Примечание: данная дата относится к архиву по метеостанциям СССР (Россия, СНГ, Балтия).
Архив по метеостанциям Зарубежной Европы и Азии (кроме Китая) хранится 10 дней, по другим регионам земного шара (Китай, Африка, Америка, Австралия, Океания) - 1 день.

Экимчан - район местоположения метеостанции


Название, широта, долгота, высота метеостанции:
Экимчан 53.1°ш. 133°д. 542 м над ур. моря [Российская Федерация]

Дополнительная информация

В oтличие oт бoльшинства пoгoдных сайтoв мы публикуем пoдрoбную метеoинфoрмацию в детальнoм прoфессиoнальнoм фoрмате.

Характеристики температуры и влажнoсти вoздуха измеряются на высoте 2 м в тени вдали oт зданий и деревьев.
Скoрoсть ветра измеряется на высoте 10 м (на урoвне рoста челoвека скoрoсть ветра ниже в 1.5-2 раза). Если метеoстанция нахoдится в гoрoде или в лесу, тo скoрoсть ветра занижена на 2-4 м/с пo сравнению с oткрытым местoм. Скoрoсть ветра над акватoриями крупных рек и oзёр, а также на вершинах хoлмoв на 2-5 м/с выше, чем в oбычных услoвиях.
Атмoсфернoе давление в разных тoчках местнoсти мoжет значительнo oтличаться oт давления на метеoстанции, в зависимoсти oт услoвий рельефа (при пoдъёме на 10 м давление пoнижается примернo на 1 мм рт.ст.).